Regional Weather Roundup
Issued by NWS Albany, NY

Home | Current Version | Previous Version | Text Only | Print | Product List | Glossary On
Versions: 1 2 3 4 5 6 7 8 9 10 11 12 13 14 15 16 17 18 19 20 21 22 23 24 25 26 27 28 29 30 31 32 33 34 35 36 37 38 39 40 41 42 43 44 45 46 47 48 49 50
000
ASUS41 KALY 012110
RWRALY

NEW YORK STATE HOURLY WEATHER ROUNDUP
NATIONAL WEATHER SERVICE ALBANY NY
500 PM EDT MON SEP 01 2014

NOTE: "FAIR" INDICATES FEW OR NO CLOUDS BELOW 12,000 FEET WITH NO
SIGNIFICANT WEATHER AND/OR NO OBSTRUCTIONS TO VISIBILITY.

NYZ032-033-038>043-046>054-057>066-NYZ062>081-012200-
EAST


CITY           SKY/WX    TMP DP  RH WIND       PRES   REMARKS
ALBANY         MOSUNNY   86  65  49 SE3       29.91F
GLENS FALLS    SUNNY     83  67  58 S7        29.90F
POUGHKEEPSIE   CLOUDY    86  69  56 SW6       29.91F HX  90
NEWBURGH       PTSUNNY   84  72  65 W9        29.95F
MONTGOMERY     PTSUNNY   86  69  56 SW6       29.93F HX  90
WHITE PLAINS   PTSUNNY   83  70  64 S3        29.94F
ISLIP          PTSUNNY   82  68  62 SW8       29.93F
NEW YORK CITY  PTSUNNY   86  72  62 S10       29.92F HX  92
CENTRAL PARK   PTSUNNY   85  71  63 VRB3      29.95F HX  90
$$

NYZ005>009-017-018-044>046-055-056-012200-
CENTRAL


CITY           SKY/WX    TMP DP  RH WIND       PRES   REMARKS
FULTON         SUNNY     85  69  58 VRB5      29.87F
SYRACUSE       MOSUNNY   85  67  54 S8        29.88F
ROME           MOSUNNY   83  68  60 S5        29.92F
ELMIRA         PTSUNNY   83  69  62 S8        29.91F
BINGHAMTON     CLOUDY    78  70  76 S5        29.97F
MONTICELLO     SUNNY     81  70  69 W5        30.00F
$$

NYZ026>034-041>043-012200-
NORTH


CITY           SKY/WX    TMP DP  RH WIND       PRES   REMARKS
WATERTOWN      SUNNY     82  68  62 SW3       29.87F
FORT DRUM      NOT AVBL
MASSENA        MOSUNNY   81  67  62 SW6       29.89F
SARANAC LAKE   MOSUNNY   79  60  52 SW8       29.94F
PLATTSBURGH    PTSUNNY   81  65  58 SE6       29.88F
$$

NYZ001>004-010>016-019>021-012200-
WEST


CITY           SKY/WX    TMP DP  RH WIND       PRES   REMARKS
NIAGARA FALLS  PTSUNNY   83  68  60 SW14      29.85F
BUFFALO        MOSUNNY   83  69  62 SW13      29.87S
DUNKIRK        MOSUNNY   83  68  60 S13G22    29.86F
JAMESTOWN      PTSUNNY   77  68  73 S9        29.93F
WELLSVILLE     MOSUNNY   78  66  66 SW7G17    29.99F
ROCHESTER      TSTM      73  72  94 NW8       29.87S FOG
PENN YAN       SUNNY     84  68  58 S10       29.91F
$$

             KEY
       WCI = WIND CHILL INDEX
       VSB = VISIBILITY
       HX  = HEAT INDEX
$$


USA.gov is the U.S. government's official web portal to all federal, state and local government web resources and services.